KB3HHA Weather Reports


Display with metric or nautical units.
time (UTC)temp
F
wind
direction
speed
MPH
gust
MPH
rain 1hr
in
rain 24hr
in
rain mn
in
humidity
%
barometer
mb
20180220034701 45 270 0.0 0.0 0.00 0.02 0.02 96 1026.7
20180220034200 45 270 0.0 0.0 0.00 0.02 0.02 96 1026.8
20180220033701 45 270 0.0 0.0 0.00 0.02 0.02 96 1026.7
20180220033200 45 270 0.0 0.0 0.00 0.02 0.02 96 1026.8
20180220032701 45 270 0.0 0.0 0.00 0.02 0.02 96 1026.8
20180220032200 46 270 0.0 0.0 0.00 0.02 0.02 96 1026.7
20180220031700 46 270 0.0 0.0 0.00 0.02 0.02 96 1026.8
20180220031200 46 270 0.0 0.0 0.00 0.02 0.02 96 1026.7
20180220030700 46 270 0.0 0.0 0.00 0.02 0.02 96 1026.8
20180220030200 46 270 0.0 0.0 0.00 0.02 0.02 96 1026.8
20180220025700 46 225 0.0 0.0 0.00 0.02 0.02 96 1026.8
20180220025200 46 225 0.0 0.0 0.00 0.02 0.02 96 1026.8
20180220024701 46 225 0.0 0.0 0.00 0.02 0.02 96 1026.7
20180220024201 46 225 0.0 0.0 0.00 0.02 0.02 96 1026.8
20180220023701 46 225 0.0 0.0 0.00 0.02 0.02 96 1026.8
20180220023200 46 247 0.0 0.0 0.00 0.02 0.02 96 1026.9
20180220022700 46 225 0.0 0.0 0.00 0.02 0.02 96 1027.0
20180220022201 46 225 0.0 0.0 0.00 0.02 0.02 96 1027.0
20180220021701 46 247 0.0 0.0 0.00 0.02 0.02 96 1026.9
20180220021200 46 247 0.0 0.0 0.00 0.02 0.02 96 1026.9
20180220020700 46 247 0.0 1.0 0.00 0.02 0.02 96 1026.9
20180220020201 46 247 0.0 1.0 0.00 0.02 0.02 96 1026.9
20180220015702 46 247 0.0 1.0 0.00 0.02 0.02 96 1026.9
20180220015200 46 247 0.0 2.0 0.00 0.02 0.02 96 1026.9
20180220014700 46 247 0.0 2.0 0.00 0.02 0.02 96 1026.9
20180220014200 46 225 0.0 2.0 0.00 0.02 0.02 96 1026.9
20180220013700 46 225 0.0 0.0 0.00 0.02 0.02 96 1026.9
20180220013200 46 247 0.0 0.0 0.00 0.02 0.02 96 1026.9
20180220012700 46 225 0.0 0.0 0.00 0.02 0.02 96 1026.9
20180220012200 45 225 0.0 1.0 0.00 0.02 0.02 96 1027.0
20180220011700 45 270 0.0 1.0 0.00 0.02 0.02 96 1027.0
20180220011200 45 315 0.0 0.0 0.00 0.02 0.02 96 1026.9
20180220010700 45 180 0.0 1.0 0.00 0.02 0.02 96 1026.9
20180220010201 45 225 0.0 2.0 0.00 0.02 0.02 96 1026.9
20180220005700 45 225 0.0 2.0 0.00 0.02 0.02 96 1026.8
20180220005201 45 225 0.0 0.0 0.00 0.02 0.02 96 1026.9
20180220004700 45 225 0.0 3.0 0.00 0.02 0.02 96 1026.8
20180220004200 45 270 1.0 3.0 0.00 0.02 0.02 96 1026.9
20180220003700 45 247 0.0 2.0 0.00 0.02 0.02 96 1026.8
20180220003200 45 225 0.0 4.0 0.00 0.02 0.02 96 1026.7
20180220002700 45 247 1.0 4.0 0.00 0.02 0.02 96 1026.7
20180220002201 45 225 0.0 3.0 0.00 0.02 0.02 96 1026.9
20180220001700 45 225 1.0 3.0 0.00 0.02 0.02 96 1026.9
20180220001201 45 225 0.0 1.0 0.00 0.02 0.02 96 1026.9
20180220000701 45 225 0.0 3.0 0.00 0.02 0.02 95 1026.9
20180220000200 45 225 1.0 4.0 0.00 0.02 0.02 95 1026.9
20180219235701 45 247 1.0 4.0 0.00 0.02 0.02 95 1026.9
20180219235201 45 247 0.0 1.0 0.00 0.02 0.02 95 1026.9
20180219234700 45 270 0.0 0.0 0.00 0.02 0.02 95 1027.0
20180219234200 45 270 0.0 0.0 0.00 0.02 0.02 95 1027.1
20180219233701 45 225 0.0 2.0 0.00 0.02 0.02 95 1026.9
20180219233200 45 247 0.0 4.0 0.00 0.02 0.02 95 1026.7
20180219232701 45 247 1.0 4.0 0.00 0.02 0.02 95 1026.6
20180219232200 45 247 1.0 4.0 0.00 0.02 0.02 95 1026.6
20180219231701 45 247 0.0 6.0 0.00 0.02 0.02 95 1026.6
20180219231200 45 247 1.0 6.0 0.00 0.02 0.02 95 1026.7
20180219230700 45 225 1.0 5.0 0.00 0.02 0.02 95 1026.8
20180219230200 45 247 1.0 2.0 0.00 0.02 0.02 95 1026.7
20180219225700 45 247 0.0 4.0 0.00 0.02 0.02 95 1026.7
20180219225200 45 247 0.0 5.0 0.00 0.02 0.02 95 1026.7
20180219224701 45 247 0.0 5.0 0.00 0.02 0.02 94 1026.6
20180219224200 46 225 0.0 3.0 0.00 0.02 0.02 94 1026.6
20180219223701 45 225 1.0 3.0 0.00 0.02 0.02 94 1026.8
20180219223200 46 225 0.0 5.0 0.00 0.02 0.02 94 1026.7
20180219222700 46 247 2.0 5.0 0.00 0.02 0.02 94 1026.7
20180219222200 46 225 0.0 0.0 0.00 0.02 0.02 94 1026.7
20180219221700 46 247 0.0 3.0 0.00 0.02 0.02 94 1026.9
20180219221201 46 247 0.0 5.0 0.00 0.02 0.02 94 1026.7
20180219220700 46 225 1.0 5.0 0.00 0.02 0.02 94 1026.7
20180219220200 46 247 0.0 4.0 0.00 0.02 0.02 94 1027.0
20180219215700 46 247 0.0 6.0 0.00 0.02 0.02 94 1026.8
20180219215200 46 225 1.0 6.0 0.00 0.02 0.02 94 1026.6
20180219214700 46 247 1.0 3.0 0.00 0.02 0.02 94 1026.6
20180219214202 46 247 1.0 6.0 0.00 0.02 0.02 94 1026.6
20180219213700 46 247 2.0 6.0 0.00 0.02 0.02 94 1026.6
20180219213201 46 247 0.0 5.0 0.00 0.02 0.02 93 1026.6
20180219212700 46 225 1.0 6.0 0.00 0.02 0.02 93 1026.6
20180219212201 46 225 2.0 6.0 0.00 0.02 0.02 93 1026.5
20180219211701 46 247 1.0 4.0 0.00 0.02 0.02 93 1026.4
20180219211200 46 247 0.0 3.0 0.00 0.02 0.02 94 1026.3
20180219210702 46 247 1.0 3.0 0.00 0.02 0.02 94 1026.5
20180219210200 46 225 0.0 5.0 0.00 0.02 0.02 94 1026.5
20180219205700 46 247 1.0 5.0 0.00 0.02 0.02 94 1026.7
20180219205200 46 247 1.0 5.0 0.00 0.02 0.02 94 1026.5
20180219204701 45 225 0.0 2.0 0.00 0.02 0.02 94 1026.5
20180219204200 45 247 0.0 2.0 0.00 0.02 0.02 94 1026.7
20180219203701 45 247 0.0 1.0 0.00 0.02 0.02 94 1026.9
20180219203200 45 247 0.0 1.0 0.00 0.02 0.02 94 1026.8
20180219202701 45 247 0.0 1.0 0.00 0.02 0.02 94 1026.9
20180219202200 45 225 0.0 2.0 0.00 0.02 0.02 94 1026.9
20180219201700 45 247 0.0 2.0 0.00 0.02 0.02 95 1027.1
20180219201200 45 225 0.0 3.0 0.00 0.02 0.02 95 1027.4
20180219200701 45 225 0.0 3.0 0.00 0.02 0.02 95 1027.2
20180219200200 45 247 0.0 3.0 0.00 0.02 0.02 95 1027.1
20180219195700 45 247 0.0 4.0 0.00 0.02 0.02 95 1027.2
20180219195200 45 112 1.0 4.0 0.00 0.02 0.02 95 1027.4
20180219194700 45 247 0.0 2.0 0.00 0.02 0.02 95 1027.2
20180219194200 44 292 0.0 6.0 0.00 0.02 0.02 95 1027.2
20180219193703 44 247 0.0 6.0 0.00 0.02 0.02 95 1026.9
20180219193200 44 247 1.0 4.0 0.00 0.02 0.02 95 1027.1
20180219192700 44 225 1.0 4.0 0.00 0.02 0.02 95 1027.3
20180219192200 44 247 1.0 5.0 0.00 0.02 0.02 94 1027.4
20180219191701 44 247 1.0 5.0 0.00 0.02 0.02 94 1027.6
20180219191201 44 225 0.0 1.0 0.00 0.02 0.02 94 1027.6
20180219190701 44 225 0.0 1.0 0.00 0.02 0.02 94 1027.7
20180219190200 44 247 0.0 1.0 0.00 0.02 0.02 94 1027.7
20180219185700 44 225 0.0 5.0 0.00 0.05 0.02 94 1027.8
20180219185201 44 247 0.0 5.0 0.00 0.05 0.02 94 1027.9
20180219184700 44 225 1.0 5.0 0.00 0.05 0.02 94 1028.2
20180219184201 44 247 0.0 6.0 0.00 0.05 0.02 93 1028.1
20180219183700 44 225 0.0 6.0 0.00 0.05 0.02 93 1028.0
20180219183200 44 247 0.0 4.0 0.00 0.05 0.02 93 1028.1
20180219182700 44 247 0.0 3.0 0.00 0.05 0.02 93 1028.4
20180219182200 43 247 0.0 3.0 0.00 0.05 0.02 93 1028.4
20180219181700 43 247 0.0 6.0 0.00 0.05 0.02 92 1028.4
20180219181200 43 225 2.0 6.0 0.00 0.05 0.02 92 1028.4
20180219180700 43 225 1.0 4.0 0.00 0.05 0.02 92 1028.4
20180219180200 43 247 0.0 3.0 0.00 0.05 0.02 92 1028.5
20180219175700 43 225 1.0 3.0 0.00 0.17 0.02 92 1028.6
20180219175200 43 247 0.0 5.0 0.00 0.17 0.02 92 1028.6
20180219174700 43 247 2.0 6.0 0.00 0.17 0.02 92 1028.7
20180219174200 42 247 1.0 6.0 0.00 0.17 0.02 92 1028.7
20180219173700 42 247 0.0 6.0 0.00 0.17 0.02 91 1028.9
20180219173200 42 247 2.0 6.0 0.00 0.17 0.02 91 1029.1
20180219172701 42 247 0.0 0.0 0.00 0.17 0.02 91 1029.1
20180219172201 42 225 0.0 0.0 0.00 0.17 0.02 91 1029.2
20180219171701 42 225 0.0 0.0 0.00 0.17 0.02 91 1029.1
20180219171200 42 247 0.0 0.0 0.00 0.17 0.02 90 1029.2
20180219170701 42 247 0.0 0.0 0.00 0.17 0.02 90 1029.4
20180219170200 42 225 0.0 3.0 0.00 0.17 0.02 90 1029.8
20180219165700 42 247 1.0 4.0 0.00 0.35 0.02 89 1029.9
20180219165200 42 247 0.0 4.0 0.00 0.35 0.02 89 1030.0
20180219164700 42 247 0.0 2.0 0.00 0.35 0.02 88 1030.2
20180219164200 42 247 0.0 1.0 0.00 0.35 0.02 88 1030.2
20180219163701 42 225 0.0 5.0 0.00 0.35 0.02 88 1030.1
20180219163201 42 247 2.0 5.0 0.00 0.35 0.02 88 1030.3
20180219162700 42 247 0.0 3.0 0.00 0.35 0.02 88 1030.3
20180219162201 42 225 0.0 3.0 0.00 0.35 0.02 88 1030.5
20180219161700 42 247 1.0 6.0 0.00 0.35 0.02 88 1030.5
20180219161201 42 247 1.0 6.0 0.00 0.35 0.02 88 1030.5
20180219160701 42 247 0.0 6.0 0.00 0.35 0.02 88 1030.5
20180219160200 42 225 1.0 6.0 0.00 0.35 0.02 88 1030.6
20180219155701 42 247 1.0 4.0 0.00 0.55 0.02 88 1030.7
20180219155201 42 225 0.0 6.0 0.00 0.55 0.02 89 1030.7
20180219154700 42 225 1.0 6.0 0.00 0.55 0.02 88 1030.6
20180219154200 42 225 1.0 3.0 0.00 0.55 0.02 89 1030.7
20180219153700 41 225 1.0 4.0 0.00 0.55 0.02 89 1030.7
20180219153201 41 225 1.0 4.0 0.00 0.55 0.02 90 1030.8
20180219152700 41 225 1.0 3.0 0.00 0.55 0.02 90 1030.7
20180219152200 41 292 0.0 0.0 0.00 0.55 0.02 90 1030.8
20180219151700 41 225 0.0 3.0 0.00 0.55 0.02 90 1030.8
20180219151201 41 225 0.0 3.0 0.00 0.55 0.02 90 1031.0
20180219150700 40 225 0.0 1.0 0.00 0.55 0.02 91 1031.0
20180219150201 40 247 0.0 3.0 0.00 0.55 0.02 91 1031.0
20180219145700 40 225 0.0 4.0 0.00 0.57 0.02 91 1030.9
20180219145200 40 225 1.0 4.0 0.00 0.57 0.02 91 1030.8
20180219144700 40 225 1.0 3.0 0.00 0.57 0.02 91 1030.9
20180219144200 40 247 1.0 2.0 0.00 0.57 0.02 91 1030.7
20180219143701 40 247 0.0 2.0 0.00 0.57 0.02 91 1030.7
20180219143200 40 247 1.0 2.0 0.00 0.57 0.02 91 1030.8
20180219142700 40 225 1.0 2.0 0.00 0.57 0.02 91 1030.9
20180219142200 40 225 0.0 4.0 0.00 0.57 0.02 91 1031.0
20180219141701 40 247 0.0 4.0 0.00 0.57 0.02 91 1031.0
20180219141200 40 225 1.0 3.0 0.00 0.57 0.02 92 1031.0
20180219140700 40 225 0.0 3.0 0.00 0.57 0.02 92 1031.1
20180219140200 40 225 0.0 2.0 0.00 0.57 0.02 92 1031.1
20180219135700 40 225 0.0 0.0 0.00 0.58 0.02 92 1030.9
20180219135200 40 225 0.0 0.0 0.00 0.58 0.02 92 1031.1
20180219134700 40 247 0.0 0.0 0.00 0.58 0.02 92 1031.1
20180219134202 40 247 0.0 1.0 0.00 0.58 0.02 92 1030.9
20180219133701 40 247 0.0 1.0 0.00 0.58 0.02 92 1030.8
20180219133201 39 225 0.0 2.0 0.00 0.58 0.02 92 1031.0
20180219132700 39 247 0.0 2.0 0.00 0.58 0.02 92 1030.9
20180219132201 39 270 0.0 0.0 0.00 0.58 0.02 93 1031.0
20180219131700 39 247 0.0 0.0 0.00 0.58 0.02 93 1030.8
20180219131200 39 337 0.0 0.0 0.00 0.58 0.02 93 1030.9
20180219130700 39 270 0.0 0.0 0.00 0.58 0.02 92 1030.9
20180219130201 39 225 0.0 0.0 0.00 0.58 0.02 92 1031.0
20180219125700 39 270 0.0 0.0 0.01 0.58 0.02 92 1031.2
20180219125200 39 247 0.0 0.0 0.01 0.58 0.02 92 1031.1
20180219124700 39 247 0.0 0.0 0.01 0.58 0.02 92 1031.2
20180219124201 39 270 0.0 0.0 0.01 0.58 0.02 92 1031.1
20180219123700 39 247 0.0 0.0 0.01 0.58 0.02 92 1031.4
20180219123201 39 270 0.0 0.0 0.01 0.58 0.02 92 1031.4
20180219122701 39 225 0.0 0.0 0.01 0.58 0.02 92 1031.5
20180219122200 39 247 0.0 0.0 0.01 0.58 0.02 91 1031.8
20180219121701 39 225 0.0 0.0 0.01 0.58 0.02 91 1031.7
20180219121201 39 225 0.0 0.0 0.01 0.58 0.02 91 1031.8
20180219120700 39 202 0.0 0.0 0.01 0.58 0.02 91 1031.7
20180219120200 39 225 0.0 0.0 0.01 0.58 0.02 90 1031.6
20180219115700 39 225 0.0 0.0 0.01 0.57 0.01 90 1031.3
20180219115200 39 225 0.0 2.0 0.01 0.57 0.01 90 1030.9
20180219114702 39 225 0.0 3.0 0.00 0.56 0.00 89 1030.9
20180219114200 39 225 0.0 3.0 0.00 0.56 0.00 89 1030.4
20180219113700 39 225 1.0 4.0 0.00 0.56 0.00 88 1030.3
20180219113201 39 225 0.0 4.0 0.00 0.56 0.00 88 1030.3
20180219112700 39 247 1.0 5.0 0.00 0.56 0.00 88 1030.6
20180219112200 39 247 1.0 5.0 0.00 0.56 0.00 88 1030.7
20180219111700 39 225 0.0 0.0 0.00 0.56 0.00 88 1030.6
20180219111201 39 225 0.0 1.0 0.00 0.56 0.00 88 1030.9
20180219110700 39 225 0.0 3.0 0.00 0.56 0.00 87 1031.4
20180219110200 39 247 1.0 3.0 0.00 0.56 0.00 88 1031.4
20180219105701 39 202 0.0 3.0 0.00 0.56 0.00 88 1031.7
20180219105200 39 247 0.0 1.0 0.00 0.56 0.00 88 1031.7
20180219104700 39 225 0.0 5.0 0.00 0.56 0.00 88 1031.7
20180219104201 39 225 2.0 5.0 0.00 0.56 0.00 87 1031.3
20180219103700 39 247 1.0 3.0 0.00 0.56 0.00 87 1031.1
20180219103200 39 247 0.0 4.0 0.00 0.56 0.00 87 1031.3
20180219102700 39 225 0.0 4.0 0.00 0.56 0.00 87 1030.9
20180219102203 39 247 1.0 4.0 0.00 0.56 0.00 87 1030.7
20180219101702 39 225 1.0 4.0 0.00 0.56 0.00 87 1030.7
20180219101201 39 247 0.0 4.0 0.00 0.56 0.00 87 1030.8
20180219100700 39 225 0.0 4.0 0.00 0.56 0.00 87 1031.0
20180219100201 39 247 0.0 4.0 0.00 0.56 0.00 87 1031.0
20180219095700 39 247 0.0 0.0 0.00 0.56 0.00 87 1031.2
20180219095200 39 225 0.0 2.0 0.00 0.56 0.00 87 1031.4
20180219094700 39 225 0.0 2.0 0.00 0.56 0.00 87 1031.4
20180219094200 39 225 0.0 1.0 0.00 0.56 0.00 87 1031.4
20180219093700 39 225 0.0 1.0 0.00 0.56 0.00 86 1031.3
20180219093200 39 247 0.0 1.0 0.00 0.56 0.00 86 1031.3
20180219092701 39 247 0.0 1.0 0.00 0.56 0.00 86 1031.1
20180219092201 39 247 0.0 1.0 0.00 0.56 0.00 86 1031.0
20180219091201 39 247 0.0 5.0 0.00 0.56 0.00 85 1031.1
20180219090700 39 247 1.0 5.0 0.00 0.56 0.00 85 1031.3
20180219090200 39 225 1.0 5.0 0.00 0.56 0.00 85 1031.3
20180219085701 39 225 0.0 5.0 0.00 0.57 0.00 85 1031.3
20180219085200 39 247 0.0 2.0 0.00 0.57 0.00 85 1031.3
20180219084701 39 247 0.0 2.0 0.00 0.57 0.00 85 1031.3
20180219084201 39 225 0.0 2.0 0.00 0.57 0.00 85 1031.3
20180219083700 39 247 0.0 3.0 0.00 0.57 0.00 85 1031.4
20180219083200 39 247 1.0 4.0 0.00 0.57 0.00 85 1031.3
20180219082701 39 225 1.0 4.0 0.00 0.57 0.00 85 1031.4
20180219082201 39 225 0.0 3.0 0.00 0.57 0.00 85 1031.4
20180219081700 39 225 0.0 3.0 0.00 0.57 0.00 85 1031.4
20180219081200 39 225 1.0 3.0 0.00 0.57 0.00 85 1031.3
20180219080700 39 135 0.0 3.0 0.00 0.57 0.00 85 1031.2
20180219080201 39 270 0.0 2.0 0.00 0.57 0.00 84 1031.5
20180219075700 39 225 0.0 4.0 0.00 0.57 0.00 84 1031.5
20180219075200 39 225 1.0 4.0 0.00 0.57 0.00 84 1031.5
20180219074700 39 247 0.0 4.0 0.00 0.57 0.00 84 1031.5
20180219074200 39 247 2.0 4.0 0.00 0.57 0.00 84 1031.5
20180219073700 39 225 0.0 0.0 0.00 0.57 0.00 84 1031.4
20180219073200 39 225 0.0 0.0 0.00 0.57 0.00 83 1031.4
20180219072700 39 225 0.0 0.0 0.00 0.57 0.00 83 1031.3
20180219072200 39 247 0.0 0.0 0.00 0.57 0.00 83 1031.4
20180219071700 38 247 0.0 2.0 0.00 0.57 0.00 83 1031.4
20180219071200 38 247 1.0 4.0 0.00 0.57 0.00 84 1031.5
20180219070700 38 247 0.0 4.0 0.00 0.57 0.00 85 1031.5
20180219070200 38 225 0.0 0.0 0.00 0.57 0.00 85 1031.4
20180219065700 37 247 0.0 1.0 0.00 0.57 0.00 87 1031.5
20180219065201 37 247 0.0 1.0 0.00 0.57 0.00 89 1031.3
20180219064700 36 247 0.0 2.0 0.00 0.57 0.00 92 1031.2
20180219064200 35 270 0.0 2.0 0.00 0.57 0.00 93 1031.2
20180219063700 34 315 0.0 1.0 0.00 0.57 0.00 94 1031.3
20180219063201 34 337 0.0 0.0 0.00 0.57 0.00 94 1031.1
20180219062700 34 0 0.0 0.0 0.00 0.57 0.00 94 1031.3
20180219062200 33 0 0.0 0.0 0.00 0.57 0.00 94 1031.3
20180219061701 33 0 0.0 0.0 0.00 0.57 0.00 94 1031.2
20180219061201 32 0 0.0 0.0 0.00 0.57 0.00 94 1031.2
20180219060700 32 0 0.0 0.0 0.00 0.57 0.00 94 1031.1
20180219060200 32 0 0.0 0.0 0.00 0.57 0.00 94 1031.4
20180219055701 32 0 0.0 0.0 0.00 0.57 0.00 93 1031.4
20180219055201 32 0 0.0 0.0 0.00 0.57 0.00 93 1031.4
20180219054700 32 0 0.0 1.0 0.00 0.57 0.00 93 1031.4
20180219054201 32 0 0.0 1.0 0.00 0.57 0.00 93 1031.3
20180219053701 32 0 0.0 0.0 0.00 0.57 0.00 93 1031.4
20180219053201 32 0 0.0 0.0 0.00 0.57 0.00 93 1031.5
20180219052701 32 0 0.0 0.0 0.00 0.57 0.00 93 1031.5
20180219052201 32 0 0.0 0.0 0.00 0.57 0.00 93 1031.5
20180219051701 32 0 0.0 0.0 0.00 0.57 0.00 92 1031.6
20180219051200 33 0 0.0 0.0 0.00 0.57 0.00 92 1031.6
20180219050703 33 0 0.0 0.0 0.00 0.57 0.00 92 1031.5
20180219050201 33 0 0.0 0.0 0.00 0.57 0.00 93 1031.5
20180219045700 33 0 0.0 0.0 0.00 0.57 0.57 93 1031.4
20180219045201 33 0 0.0 0.0 0.00 0.57 0.57 93 1031.4
20180219044700 33 0 0.0 0.0 0.00 0.57 0.57 93 1031.3
20180219044201 33 0 0.0 1.0 0.00 0.57 0.57 93 1031.4
20180219043700 33 0 0.0 1.0 0.00 0.57 0.57 93 1031.3
20180219043200 33 0 0.0 0.0 0.00 0.57 0.57 93 1031.3
20180219042700 33 0 0.0 0.0 0.00 0.57 0.57 93 1031.3
20180219042200 33 0 0.0 0.0 0.00 0.57 0.57 93 1031.4
20180219041700 33 0 0.0 0.0 0.00 0.57 0.57 94 1031.4
20180219041200 32 0 0.0 0.0 0.00 0.57 0.57 93 1031.3
20180219040700 32 0 0.0 0.0 0.00 0.57 0.57 93 1031.3
20180219040201 32 0 0.0 0.0 0.00 0.57 0.57 93 1031.4
20180219035700 33 0 0.0 0.0 0.00 0.58 0.57 93 1031.3
20180219035200 33 0 0.0 0.0 0.00 0.58 0.57 93 1031.4